Birmingham, United Kingdom

6:13 AM BST on April 28, 2017 (GMT +0100)
Birmingham

Weather History for EGBB - May, 2013

Change the Weather History Date:

Monday, May 6, 2013

  Actual Average Record
Temperature  
Mean Temperature 52 °F -  
Max Temperature 68 °F 61 °F 73 °F (2011)
Min Temperature 37 °F 44 °F 32 °F (2012)
Degree Days  
Heating Degree Days 12    
Growing Degree Days 2 (Base 50)    
Moisture  
Dew Point 42 °F    
Average Humidity 63    
Maximum Humidity 100    
Minimum Humidity 34    
Precipitation  
Precipitation 0.00 in 0.07 in - ()
Sea Level Pressure  
Sea Level Pressure 30.10 in    
Wind  
Wind Speed 4 mph ()    
Max Wind Speed 9 mph    
Max Gust Speed -    
Visibility 5.5 miles    
Events      
Averages and records for this station are not official NWS values.
T = Trace of Precipitation, MM = Missing Value Source: Averaged Metar Reports

Daily Weather History Graph

Daily Weather History Graph

Search for Another Location

Airport or City:

Trip Planner

Search our weather history database for the weather conditions in past years. The results will help you decide how hot, cold, wet, or windy it might be!

Date:

Astronomy

May. 06, 2013 Rise Set
Actual Time 5:26 AM BST 8:41 PM BST
Civil Twilight 4:45 AM BST 9:22 PM BST
Nautical Twilight 3:51 AM BST 10:17 PM BST
Astronomical Twilight 2:38 AM BST 11:32 PM BST
Moon 3:48 AM BST (5/6) 5:04 PM BST (5/6)
Length of Visible Light 16h 37m
Length of Day
15h 15m
Waning Crescent, 12% of the Moon is Illuminated
May 6
Waning Crescent
May 10
New
May 18
First Quarter
May 25
Full
May 31
Last Quarter

Hourly Weather History & Observations

Time (BST) Temp. Windchill Dew Point Humidity Pressure Visibility Wind Dir Wind Speed Gust Speed Precip Events Conditions
12:20 AM 46.4 °F 45.2 °F 41.0 °F 81% 30.15 in - SSW 3.5 mph - N/A   Clear
12:50 AM 48.2 °F - 42.8 °F 82% 30.15 in - SSW 5.8 mph - N/A   Clear
1:20 AM 46.4 °F 44.3 °F 41.0 °F 81% 30.15 in - SSW 4.6 mph - N/A   Clear
1:50 AM 42.8 °F 40.1 °F 39.2 °F 87% 30.15 in 6.2 mi South 4.6 mph - N/A   Unknown
2:20 AM 41.0 °F 38.0 °F 39.2 °F 93% 30.15 in 6.2 mi South 4.6 mph - N/A   Unknown
2:50 AM 42.8 °F 41.1 °F 39.2 °F 87% 30.15 in 6.2 mi South 3.5 mph - N/A   Unknown
3:20 AM 44.6 °F 42.2 °F 41.0 °F 87% 30.15 in 4.3 mi SW 4.6 mph - N/A   Unknown
3:50 AM 44.6 °F 42.2 °F 41.0 °F 87% 30.12 in 3.1 mi SW 4.6 mph - N/A   Haze
4:20 AM 42.8 °F 39.3 °F 41.0 °F 93% 30.12 in - SSW 5.8 mph - N/A   Clear
4:50 AM 39.2 °F 37.0 °F 37.4 °F 93% 30.12 in - Variable 3.5 mph - N/A   Clear
5:20 AM 39.2 °F - 37.4 °F 93% 30.12 in - Calm Calm - N/A   Clear
5:50 AM 37.4 °F - 37.4 °F 100% 30.12 in - Calm Calm - N/A   Clear
6:20 AM 41.0 °F - 39.2 °F 93% 30.12 in 5.0 mi Calm Calm - N/A   Unknown
6:50 AM 46.4 °F - 42.8 °F 87% 30.12 in - Calm Calm - N/A   Clear
7:20 AM 48.2 °F - 42.8 °F 82% 30.12 in - Variable 2.3 mph - N/A   Clear
7:50 AM 53.6 °F - 44.6 °F 72% 30.12 in - Calm Calm - N/A   Clear
8:20 AM 53.6 °F - 42.8 °F 67% 30.12 in - Variable 2.3 mph - N/A   Clear
8:50 AM 55.4 °F - 46.4 °F 72% 30.15 in - Variable 3.5 mph - N/A   Clear
9:20 AM 57.2 °F - 44.6 °F 63% 30.15 in - SSW 6.9 mph - N/A   Clear
9:50 AM 59.0 °F - 44.6 °F 59% 30.15 in - SW 5.8 mph - N/A   Clear
10:20 AM 57.2 °F - 41.0 °F 55% 30.15 in - SW 8.1 mph - N/A   Clear
10:50 AM 59.0 °F - 42.8 °F 55% 30.15 in - WSW 8.1 mph - N/A   Clear
11:20 AM 60.8 °F - 44.6 °F 55% 30.12 in - West 8.1 mph - N/A   Clear
11:50 AM 62.6 °F - 46.4 °F 55% 30.12 in - South 8.1 mph - N/A   Clear
12:20 PM 62.6 °F - 46.4 °F 55% 30.12 in 6.2 mi WSW 6.9 mph - N/A   Unknown
12:50 PM 64.4 °F - 48.2 °F 56% 30.12 in - SSW 8.1 mph - N/A   Clear
1:20 PM 64.4 °F - 46.4 °F 52% 30.09 in - South 6.9 mph - N/A   Clear
1:50 PM 66.2 °F - 44.6 °F 46% 30.09 in - SSW 8.1 mph - N/A   Clear
2:20 PM 66.2 °F - 44.6 °F 46% 30.09 in 6.2 mi Variable 6.9 mph - N/A   Partly Cloudy
2:50 PM 66.2 °F - 46.4 °F 49% 30.09 in 6.2 mi South 9.2 mph - N/A   Partly Cloudy
3:20 PM 66.2 °F - 44.6 °F 46% 30.09 in - South 8.1 mph - N/A   Clear
3:50 PM 68.0 °F - 46.4 °F 46% 30.06 in - South 5.8 mph - N/A   Clear
4:20 PM 68.0 °F - 44.6 °F 43% 30.06 in - SSW 8.1 mph - N/A   Clear
4:50 PM 68.0 °F - 44.6 °F 43% 30.06 in - SW 6.9 mph - N/A   Clear
5:20 PM 68.0 °F - 44.6 °F 43% 30.06 in - SSW 8.1 mph - N/A   Clear
5:50 PM 68.0 °F - 42.8 °F 40% 30.04 in - SW 9.2 mph - N/A   Clear
6:20 PM 66.2 °F - 42.8 °F 43% 30.04 in - South 5.8 mph - N/A   Clear
6:50 PM 66.2 °F - 42.8 °F 43% 30.04 in - SSE 4.6 mph - N/A   Clear
7:20 PM 66.2 °F - 42.8 °F 43% 30.04 in - SSW 6.9 mph - N/A   Clear
7:50 PM 64.4 °F - 42.8 °F 45% 30.04 in - WSW 5.8 mph - N/A   Clear
8:20 PM 64.4 °F - 35.6 °F 34% 30.04 in - WSW 6.9 mph - N/A   Clear
8:50 PM 62.6 °F - 33.8 °F 34% 30.06 in - SW 4.6 mph - N/A   Clear
9:20 PM 60.8 °F - 35.6 °F 39% 30.06 in - SSW 3.5 mph - N/A   Clear
9:50 PM 57.2 °F - 37.4 °F 48% 30.06 in - Variable 2.3 mph - N/A   Clear
10:20 PM 50.0 °F - 39.2 °F 66% 30.06 in - Calm Calm - N/A   Clear
10:50 PM 51.8 °F - 39.2 °F 62% 30.06 in - SSE 3.5 mph - N/A   Clear
11:20 PM 50.0 °F - 39.2 °F 66% 30.06 in - Variable 2.3 mph - N/A   Clear
11:50 PM 51.8 °F - 39.2 °F 62% 30.06 in - Variable 3.5 mph - N/A   Clear